Marrakech, Morocco

1:57 AM WEST on September 30, 2016 (GMT +0100)
Menara

Weather History for GMMX - May, 2013

Change the Weather History Date:

Thursday, May 2, 2013

  Actual Average Record
Temperature  
Mean Temperature 60 °F -  
Max Temperature 73 °F 76 °F 103 °F (2015)
Min Temperature 47 °F 54 °F 47 °F (2013)
Degree Days  
Heating Degree Days 5    
Growing Degree Days 10 (Base 50)    
Moisture  
Dew Point 45 °F    
Average Humidity 48    
Maximum Humidity 72    
Minimum Humidity 22    
Precipitation  
Precipitation 0.00 in - - ()
Sea Level Pressure  
Sea Level Pressure 29.99 in    
Wind  
Wind Speed 4 mph ()    
Max Wind Speed 16 mph    
Max Gust Speed -    
Visibility 5.9 miles    
Events      
Averages and records for this station are not official NWS values.
T = Trace of Precipitation, MM = Missing Value Source: Averaged Metar Reports

Daily Weather History Graph

Daily Weather History Graph

Search for Another Location

Airport or City:

Trip Planner

Search our weather history database for the weather conditions in past years. The results will help you decide how hot, cold, wet, or windy it might be!

Date:

Astronomy

May. 02, 2013 Rise Set
Actual Time 6:45 AM WEST 8:12 PM WEST
Civil Twilight 6:19 AM WEST 8:38 PM WEST
Nautical Twilight 5:49 AM WEST 9:09 PM WEST
Astronomical Twilight 5:16 AM WEST 9:42 PM WEST
Moon 1:55 AM WEST (5/2) 1:14 PM WEST (5/2)
Length of Visible Light 14h 18m
Length of Day
13h 26m
Waning Gibbous, 50% of the Moon is Illuminated
May 2
Waning Gibbous
May 2
Last Quarter
May 10
New
May 18
First Quarter
May 25
Full

Hourly Weather History & Observations

Time (WEST) Temp. Dew Point Humidity Pressure Visibility Wind Dir Wind Speed Gust Speed Precip Events Conditions
12:00 AM 59.0 °F 48.2 °F 67% 30.04 in 6.2 mi NNE 8.1 mph - N/A   Scattered Clouds
12:30 AM 59.0 °F 48.2 °F 67% 30.04 in 6.2 mi North 6.9 mph - N/A   Scattered Clouds
1:00 AM 59 °F 49 °F 60% 30.01 in 6 mi North 4.6 mph - -  
1:00 AM 59.0 °F 48.2 °F 67% 30.04 in - North 4.6 mph - N/A   Clear
4:00 AM 58 °F 49 °F 63% 29.98 in - Calm Calm - -  
7:00 AM 57 °F 47 °F 60% 29.98 in 6 mi Calm Calm - -   Mostly Cloudy
7:00 AM 57.2 °F 46.4 °F 67% 29.98 in 6.2 mi Calm Calm - N/A   Mostly Cloudy
7:30 AM 57.2 °F 48.2 °F 72% 29.98 in 6.2 mi Calm Calm - N/A   Mostly Cloudy
8:00 AM 57.2 °F 48.2 °F 72% 29.98 in 6.2 mi Calm Calm - N/A   Mostly Cloudy
8:30 AM 59.0 °F 48.2 °F 67% 30.01 in 6.2 mi Calm Calm - N/A   Mostly Cloudy
9:00 AM 59.0 °F 48.2 °F 67% 30.01 in 6.2 mi Calm Calm - N/A   Mostly Cloudy
9:30 AM 60.8 °F 46.4 °F 59% 30.01 in 6.2 mi Calm Calm - N/A   Mostly Cloudy
10:00 AM 61 °F 47 °F 49% 29.99 in 6 mi Calm Calm - -   Mostly Cloudy
10:00 AM 60.8 °F 48.2 °F 63% 30.01 in 6.2 mi Calm Calm - N/A   Mostly Cloudy
10:30 AM 62.6 °F 46.4 °F 55% 30.01 in 6.2 mi Variable 2.3 mph - N/A   Mostly Cloudy
11:00 AM 66.2 °F 48.2 °F 52% 30.01 in 6.2 mi Variable 4.6 mph - N/A   Mostly Cloudy
11:30 AM 64.4 °F 44.6 °F 49% 30.01 in 6.2 mi NNW 8.1 mph - N/A   Mostly Cloudy
12:00 PM 66.2 °F 44.6 °F 46% 30.01 in 6.2 mi North 3.5 mph - N/A   Mostly Cloudy
12:30 PM 68.0 °F 42.8 °F 40% 30.01 in 6.2 mi North 4.6 mph - N/A   Mostly Cloudy
1:00 PM 68 °F 42 °F 28% 29.96 in 6 mi NNE 5.8 mph - -   Mostly Cloudy
1:00 PM 68.0 °F 42.8 °F 40% 30.01 in 6.2 mi NNE 6.9 mph - N/A   Mostly Cloudy
1:30 PM 68.0 °F 42.8 °F 40% 30.01 in 6.2 mi NNE 3.5 mph - N/A   Mostly Cloudy
2:00 PM 69.8 °F 42.8 °F 38% 29.98 in 5.0 mi West 4.6 mph - N/A   Mostly Cloudy
2:30 PM 69.8 °F 41.0 °F 35% 29.98 in 5.0 mi Calm Calm - N/A   Mostly Cloudy
3:00 PM 71.6 °F 41.0 °F 33% 29.98 in 5.0 mi WNW 4.6 mph - N/A   Scattered Clouds
3:30 PM 71.6 °F 41.0 °F 33% 29.98 in 5.0 mi WNW 5.8 mph - N/A   Scattered Clouds
4:00 PM 71 °F 40 °F 22% 29.93 in 5 mi NNW 3.5 mph - -   Mostly Cloudy
4:00 PM 69.8 °F 41.0 °F 35% 29.98 in 5.0 mi NW 3.5 mph - N/A   Scattered Clouds
4:30 PM 73.4 °F 41.0 °F 31% 29.98 in 5.0 mi NE 5.8 mph - N/A   Scattered Clouds
5:00 PM 73.4 °F 39.2 °F 29% 29.98 in 5.0 mi North 4.6 mph - N/A   Scattered Clouds
5:30 PM 71.6 °F 39.2 °F 31% 29.98 in 6.2 mi WNW 4.6 mph - N/A   Scattered Clouds
6:00 PM 71.6 °F 37.4 °F 29% 29.98 in 6.2 mi NW 3.5 mph - N/A   Scattered Clouds
6:30 PM 73.4 °F 39.2 °F 29% 29.95 in 6.2 mi Calm Calm - N/A   Scattered Clouds
6:49 PM 72 °F 41 °F 22% 29.91 in 6 mi NE 5.8 mph - -   Partly Cloudy
7:00 PM 73.4 °F 41.0 °F 31% 29.95 in 6.2 mi NE 5.8 mph - N/A   Scattered Clouds
7:30 PM 71.6 °F 41.0 °F 33% 29.95 in 6.2 mi Variable 2.3 mph - N/A   Scattered Clouds
8:00 PM 71.6 °F 44.6 °F 38% 29.95 in 6.2 mi North 4.6 mph - N/A   Scattered Clouds
8:30 PM 66.2 °F 48.2 °F 52% 29.98 in 6.2 mi NNW 16.1 mph - N/A   Scattered Clouds
9:00 PM 66.2 °F 48.2 °F 52% 29.98 in 6.2 mi NNW 11.5 mph - N/A   Scattered Clouds
9:30 PM 64.4 °F 48.2 °F 56% 30.01 in 6.2 mi NNW 10.4 mph - N/A   Scattered Clouds
10:00 PM 64 °F 48 °F 45% 29.99 in 6 mi North 9.2 mph - -   Partly Cloudy
10:00 PM 64.4 °F 48.2 °F 56% 30.01 in 6.2 mi NNW 9.2 mph - N/A   Scattered Clouds
10:30 PM 62.6 °F 48.2 °F 59% 30.04 in 6.2 mi North 9.2 mph - N/A   Scattered Clouds
11:00 PM 62.6 °F 48.2 °F 59% 30.04 in 6.2 mi North 8.1 mph - N/A   Scattered Clouds
11:30 PM 60.8 °F 48.2 °F 63% 30.04 in 6.2 mi North 6.9 mph - N/A   Mostly Cloudy